C/2023 P1 ( Nishimura )

Japanese version
Home page
Updated on September 28, 2023

---------------------------------------------------------------------

* Profile

Discovery Date August 12, 2023
Magnitude 10.4 mag
Discoverer Hideo Nishimura (Kakegawa, Japan)

* Pictures

* Orbital Elements

Epoch 2023 Sept. 13.0 TT = JDT 2460200.5                                        
T 2023 Sept. 17.64112 TT                                Rudenko                 
q   0.2251637            (2000.0)            P               Q                  
z  +0.0161710      Peri.  116.28908     +0.38236795     -0.62749778             
 +/-0.0006602      Node    66.84341     -0.85509439     -0.51846683             
e   0.9963589      Incl.  132.46439     +0.35015473     -0.58089473             
>From 421 observations 2023 Aug. 11-28, mean residual 0".6.                      

* Finding Charts

* Magnitudes Graph

        m1 = 9.0 + 5 log d + 17.0 log r  [   ,-35]  (             - 2023 Aug. 13)
        m1 = 9.0 + 5 log d + 10.0 log r  [-35, 35]  (2023 Aug. 13 - 2023 Oct. 22)
        m1 = 9.0 + 5 log d + 17.0 log r  [ 35,   ]  (2023 Oct. 22 -             )

---------------------------------------------------------------------

The orbital elements are published on M.P.E.C. 2023-Q150.
The charts are made with StellaNavigator Ver.11 (AstroArts).
The magnitudes graphs are made with Comet for Windows.

---------------------------------------------------------------------

Copyright(C) Seiichi Yoshida (comet@aerith.net). All rights reserved.